GSAT0216 (GALILEO 20) (43056 NORAD) Tracking and Keplerian Element Data

This shows tracking and keplerian element data for the satellite.

Feedback or suggestion? Click here.




ElementValue
Catalog43056
NameGSAT0216 (GALILEO 20)
Epoch Orbit3786
Epoch Day12.98134158
Epoch Year2024
RAAN245.9012
Inclination55.4162
Eccentricity0.0002752
Argument of Perigee319.9196
Mean Anonmoly40.1563
Mean Motion1.70474061
Decay Rate6.5E-07
L11 43056U 17079B 24012.98134158 .00000065 00000+0 00000+0 0 9999
L22 43056 55.4162 245.9012 0002752 319.9196 40.1563 1.70474061 37863



Live tracking and technical data element details for GSAT0216 (GALILEO 20) (NORAD 43056). GSAT0216 (GALILEO 20) can be tracked NOW for your location showing map with azimuth and elevation plus other details from your city location.







IsCatalogInMostPopularTable: catalog: 43056, numindb: 799
Update: records affected: 1



GetName: 43056 GSAT0216 (GALILEO 20)

Hit Count: updated at: Wed, 21 Feb 2024 09:38:58 GMT